SCP
0 0 0 0 0 0 0 0 0 0 0 0 0 0 0 0 0 0 0 0 0 0 0 0 0 0 0 0 0 0 0 0 0 0 0 0 0 1 1 1 1 1 1
0 0 0 0 0 0 0 0 0 0 0 0 0 0 0 0 0 0 0 0 0 0 0 0 0 0 0 0 0 0 0 0 0 0 0 0 0 1 1 1 1 1 1
0 0 0 0 0 0 0 0 0 0 0 0 0 0 0 0 0 0 0 0 0 0 0 0 0 0 0 0 0 0 0 0 0 0 0 0 0 0 0 1 1 1 1
0 0 0 0 0 0 0 0 0 0 0 0 0 0 0 0 0 0 0 0 0 0 0 0 0 0 0 0 0 0 0 0 0 0 0 0 0 0 0 1 1 1 1
0 0 0 0 0 0 0 0 0 0 0 0 0 0 0 0 0 0 0 0 0 0 0 0 0 0 0 0 0 0 0 0 0 0 0 0 0 0 0 0 1 1 1
0 0 0 0 0 0 0 0 0 0 0 0 0 0 0 0 0 0 0 0 0 0 0 0 0 0 0 0 0 0 0 0 0 0 0 0 0 0 0 1 0 1 1
0 0 0 0 0 0 0 0 0 0 0 0 0 0 0 0 0 0 0 0 0 0 0 0 0 0 0 0 0 0 0 0 0 0 0 0 0 0 0 1 1 1 1
0 0 0 0 0 0 0 0 0 0 0 0 0 0 0 0 0 0 0 0 0 0 0 0 0 0 0 0 0 0 0 0 0 0 0 0 0 0 0 0 1 1 2
0 0 0 0 0 0 0 0 0 0 0 0 0 0 0 0 0 0 0 0 0 0 0 0 0 0 0 0 0 0 0 0 0 0 0 0 0 0 0 0 1 1 1
0 0 0 0 0 0 0 0 0 0 0 0 0 0 0 0 0 0 0 0 0 0 0 0 0 0 0 0 0 0 0 0 0 0 0 0 0 0 0 0 1 1 1
0 0 0 0 0 0 0 0 0 0 0 0 0 0 0 0 0 0 0 0 0 0 0 0 0 0 0 0 0 0 0 0 0 0 0 0 0 0 0 0 0 1 2
0 0 0 0 0 0 0 0 0 0 0 0 0 0 0 0 0 0 0 0 0 0 0 0 0 0 0 0 0 0 0 0 0 0 0 0 0 0 0 0 0 1 1
0 0 0 0 0 0 0 0 0 0 0 0 0 0 0 0 0 0 0 0 0 0 0 0 0 0 0 0 0 0 0 0 0 0 0 0 0 0 0 0 0 0 1
0 0 0 0 0 0 0 0 0 0 0 0 0 0 0 0 0 0 0 0 0 0 0 0 0 0 0 0 -0 -0 0 0 0 0 0 0 0 0 0 0 0 0 0
0 0 0 0 0 0 0 0 0 0 0 0 0 0 0 0 0 0 0 0 0 0 0 0 0 0 0 0 -0 -0 0 0 0 0 0 0 0 0 0 0 0 0 0
0 0 0 0 0 0 0 0 0 0 0 0 0 0 0 0 0 0 0 0 0 0 0 0 0 0 0 0 -0 -0 -0 -0 0 0 0 0 0 0 0 0 0 0 1
0 0 0 0 0 0 0 0 0 0 0 0 0 0 0 0 0 0 0 0 0 0 0 0 0 0 0 -0 -0 -0 -0 -0 0 -0 0 0 0 0 0 0 0 0 0
0 0 0 0 0 0 0 0 0 0 0 0 0 0 0 0 0 0 0 0 0 0 0 0 0 0 0 -0 -0 0 -0 -0 0 -0 -0 -0 0 0 0 0 0 0 0
0 0 0 0 0 0 0 0 0 0 0 0 0 0 0 0 0 0 0 0 0 0 0 0 -0 0 0 0 -0 -0 -0 0 0 -0 -0 -0 -0 -0 0 0 0 0 0
0 0 0 0 0 0 0 0 0 0 0 0 0 0 0 0 0 0 0 0 0 0 0 0 0 0 0 0 0 -0 0 -0 -0 -0 -0 0 0 0 -0 0 0 0 0
0 0 0 0 0 0 0 0 0 0 0 0 0 0 0 0 0 0 0 0 0 0 0 0 -0 0 0 0 -0 0 0 -0 0 0 0 0 0 0 0 0 0 0 0
0 0 0 0 0 0 0 0 0 0 0 0 0 0 0 0 0 0 0 0 0 0 0 0 -0 -0 0 0 0 0 0 0 0 0 0 0 0 0 0 0 0 0 0
0 0 0 0 0 0 0 -0 0 -0 0 0 0 0 0 0 0 0 0 0 0 0 0 0 0 -0 0 0 0 0 0 0 0 0 0 0 0 0 0 0 0 0 0
0 0 0 0 0 0 0 -0 0 0 0 0 0 0 0 0 0 0 0 0 0 0 0 0 0 0 0 0 0 0 0 0 0 0 0 0 0 0 0 0 0 0 0
0 0 0 0 0 0 0 0 0 0 0 0 0 0 0 0 0 0 0 0 0 0 0 0 0 0 0 -0 0 0 0 0 0 0 0 0 0 0 0 0 0 0 0
0 0 0 0 0 0 0 0 0 0 0 0 0 0 0 0 0 0 0 0 0 0 0 0 0 0 0 0 0 0 0 0 0 0 0 0 0 0 0 0 0 0 0
Wind_Speed_500mb
30 33 36 42 45 50 53 63 62 60 72 64 56 59 63 65 67 69 74 77 83 90 91 88 90 89 85 82 80 77 80 86 85 89 87 78 73 76 82 82 81 78 71
38 41 44 47 55 67 70 72 62 74 67 62 61 60 62 64 66 67 69 70 75 82 83 75 71 68 69 69 69 74 74 76 78 87 91 92 85 78 76 85 86 84 82
44 48 54 61 66 73 73 69 63 58 56 57 60 60 60 59 60 60 59 60 61 63 63 60 59 59 60 60 63 64 65 74 72 74 79 92 96 91 84 78 86 90 88
49 50 58 65 71 72 65 54 54 53 54 56 57 56 53 54 54 53 50 49 49 51 51 50 51 53 51 54 59 60 65 64 66 65 72 76 87 95 95 89 80 90 93
52 60 67 67 69 64 54 47 47 50 53 54 54 54 52 52 49 47 44 41 43 44 43 43 46 50 54 49 48 52 57 61 61 66 69 72 72 88 94 96 90 84 95
64 73 64 64 64 52 46 46 49 46 48 50 52 52 46 45 42 36 35 41 45 45 45 48 50 48 43 44 47 45 47 53 60 65 62 63 66 70 72 98 95 90 91
72 71 59 57 49 44 45 43 41 41 41 40 44 42 44 32 34 30 36 51 41 41 40 46 47 46 48 47 46 48 49 54 57 59 71 71 74 74 73 76 100 98 95
63 61 59 49 43 42 39 45 43 39 37 34 39 49 25 42 7 32 56 43 46 41 45 49 45 47 45 42 42 47 52 52 53 56 57 61 75 74 71 69 88 100 98
61 55 51 44 38 37 35 41 33 36 42 44 37 31 18 14 50 54 60 44 47 48 47 47 46 45 45 50 50 46 47 46 52 52 55 57 65 71 69 70 69 95 97
51 47 43 35 35 40 36 32 39 42 41 45 45 37 38 46 36 41 56 56 43 55 57 54 51 53 49 45 45 45 48 54 53 54 54 56 58 63 72 67 69 77 96
41 35 31 30 31 30 31 36 40 38 38 41 43 46 51 52 52 41 62 70 72 55 50 48 52 46 43 45 43 40 43 44 50 49 53 55 57 62 68 73 65 71 90
21 23 27 30 30 29 33 37 36 34 37 40 43 47 46 48 56 54 56 71 73 71 53 43 44 36 38 35 31 45 50 52 56 55 58 61 64 72 73 75 75 66 79
20 24 27 30 31 32 33 38 35 33 33 38 44 49 45 45 47 51 55 64 62 73 50 43 33 35 28 28 41 45 48 55 54 56 57 60 62 65 68 78 78 70 73
24 29 27 29 32 33 30 31 28 31 33 40 41 41 45 43 43 50 50 53 62 57 53 41 27 34 44 66 65 51 47 46 56 59 56 57 61 67 66 67 69 67 69
28 29 28 29 30 30 29 29 29 30 33 33 38 39 47 51 45 42 46 45 44 38 56 46 47 64 72 61 39 39 41 42 47 50 47 45 54 54 47 56 60 55 60
32 31 29 29 29 29 30 31 29 33 33 33 33 36 39 49 50 45 42 46 37 44 44 52 69 71 58 39 33 32 38 42 43 37 44 47 36 27 38 47 48 50 51
30 29 30 28 29 30 32 34 34 33 38 36 35 35 41 48 51 48 43 42 43 42 50 62 65 65 53 38 32 40 32 28 30 23 18 19 21 27 32 35 40 44 44
27 27 25 26 28 30 32 36 37 36 36 37 36 36 41 45 47 47 42 41 45 42 43 54 56 60 42 33 44 38 27 25 18 8 14 18 15 15 19 21 26 44 48
27 25 22 24 27 31 35 34 37 36 35 37 33 35 44 45 44 46 41 38 40 43 41 43 51 46 38 34 43 34 28 16 20 24 37 31 24 22 18 15 14 20 32
26 23 23 27 29 31 29 36 36 32 32 33 35 35 38 44 39 48 47 32 36 41 42 44 48 47 46 40 35 30 27 13 11 27 25 36 31 27 26 23 22 13 19
29 27 25 25 25 25 29 43 39 30 30 34 33 34 34 40 42 41 43 37 32 36 34 38 46 44 54 50 48 37 25 15 11 24 13 23 15 21 23 28 32 33 27
31 29 26 26 27 21 33 36 37 30 30 32 34 36 38 35 40 44 36 31 36 34 36 35 36 44 50 54 49 38 26 17 8 10 16 17 18 24 25 28 27 25 24
28 29 29 30 27 28 43 42 34 24 27 30 31 34 33 34 36 42 42 34 31 33 28 29 35 37 42 52 55 41 27 17 11 3 14 14 15 21 25 27 23 23 22
26 27 31 33 29 30 40 43 41 28 30 31 32 32 31 34 37 43 41 36 32 30 27 26 28 30 34 37 46 47 27 16 8 9 11 12 15 22 23 27 27 24 23
24 26 30 32 31 32 41 43 43 34 34 35 34 32 35 33 45 45 41 36 34 28 29 32 26 26 25 31 39 38 21 6 6 6 8 18 16 25 25 27 28 26 27
24 26 30 31 30 34 40 45 47 39 40 40 35 33 39 38 51 50 48 36 35 35 37 32 26 25 23 24 32 34 31 23 1 2 14 14 27 28 17 21 25 26 28
Wind_Direction_500mb
287 297 298 304 304 304 306 302 300 297 297 297 294 291 290 288 288 288 286 284 282 283 283 283 284 280 275 270 266 262 260 261 255 249 247 244 242 240 240 241 240 238 238
294 301 306 305 304 300 299 298 298 297 297 297 295 293 290 291 290 288 288 286 281 280 280 279 277 275 272 266 263 261 261 262 258 252 248 245 243 242 240 239 239 238 237
298 302 303 302 299 299 300 300 301 303 302 300 298 298 295 294 292 291 290 288 288 287 286 282 278 276 272 268 263 260 256 251 256 253 252 248 245 242 241 240 238 238 237
298 303 306 302 300 304 307 309 309 307 305 304 303 301 298 298 296 294 295 292 290 288 285 285 282 277 274 268 262 259 258 256 258 255 252 250 248 243 240 240 240 237 237
305 310 309 307 308 312 311 310 308 309 309 308 307 305 303 302 300 299 296 300 302 298 290 287 287 285 287 283 266 256 251 246 245 243 249 250 252 245 241 240 240 239 235
309 313 315 312 316 316 315 309 314 313 313 309 308 306 306 300 298 298 304 309 301 296 295 289 287 283 282 279 275 267 260 256 253 252 252 250 247 249 248 239 238 239 236
313 314 317 320 322 321 315 318 316 317 317 317 319 314 314 324 294 290 307 308 308 304 295 298 288 278 271 268 270 271 270 263 258 255 242 243 243 243 243 245 237 236 238
314 315 319 323 320 322 323 310 330 331 325 327 329 321 315 328 318 290 310 308 313 305 300 301 287 285 281 277 271 271 267 265 261 260 258 255 247 243 244 248 243 235 237
315 320 324 328 328 331 322 332 325 332 322 333 329 308 310 286 309 318 316 316 308 309 305 303 294 286 279 284 275 276 272 271 265 258 259 257 253 245 242 247 247 238 235
319 323 330 332 335 338 329 327 340 335 326 328 330 324 302 298 301 310 316 316 319 308 312 305 295 289 288 279 282 277 269 267 261 262 260 255 252 250 244 245 244 242 234
324 327 340 339 341 337 333 349 345 339 336 337 329 325 326 323 318 297 301 320 322 321 314 310 302 293 291 285 270 275 271 269 272 271 263 255 248 247 241 242 243 241 234
327 323 339 341 341 339 334 343 339 334 346 342 341 338 327 321 320 313 298 314 315 327 319 316 314 309 309 310 302 290 285 276 277 271 268 260 253 249 247 245 242 242 236
316 309 335 334 337 341 341 338 333 336 336 341 349 340 334 330 330 327 317 314 309 321 327 323 313 310 305 309 305 286 278 279 281 276 273 266 258 256 253 250 249 250 242
317 317 323 322 334 340 338 328 330 339 343 347 346 347 347 336 336 336 329 317 310 313 324 329 332 315 301 313 313 293 291 289 280 280 271 264 257 258 257 254 252 255 246
315 315 312 314 315 326 333 324 323 340 338 342 338 354 348 352 341 338 344 334 314 299 311 325 311 330 322 315 306 307 295 291 296 278 271 256 262 260 256 253 255 249 243
313 311 311 306 305 310 318 326 323 330 333 335 336 341 344 348 349 349 341 339 325 308 289 315 328 334 336 332 324 338 330 315 303 284 275 259 243 236 248 249 243 245 233
316 309 303 303 303 306 312 316 322 323 323 324 327 331 337 343 348 346 353 345 343 334 311 326 337 345 347 338 345 340 329 319 307 290 277 225 212 226 236 237 232 230 225
329 323 312 308 305 307 313 318 316 314 317 319 323 328 335 336 338 344 342 348 349 349 341 335 343 353 2 358 347 341 345 3 344 312 216 170 189 204 222 231 219 215 214
337 328 324 313 310 316 320 318 314 310 309 318 320 328 333 335 337 338 339 341 348 351 352 349 344 352 1 359 354 348 1 55 9 39 92 119 122 122 144 144 167 195 209
350 338 331 317 320 322 325 330 329 315 307 312 318 324 332 339 335 341 347 349 345 349 353 360 356 354 2 358 1 6 349 2 63 41 56 83 83 87 94 100 96 122 176
350 346 337 330 336 342 323 333 332 325 316 318 320 324 327 332 332 335 342 344 340 346 346 350 1 353 360 360 1 353 345 347 40 78 61 88 72 70 84 88 91 86 98
358 359 356 350 342 332 324 335 331 324 316 317 324 325 331 333 334 332 334 340 344 341 341 344 352 358 357 357 355 351 347 334 309 82 84 65 76 96 88 101 93 90 96
354 357 357 351 343 329 329 344 339 338 323 322 328 330 335 333 340 341 341 336 327 328 330 344 334 347 352 355 351 348 345 329 315 145 96 90 82 86 90 103 104 108 108
342 352 355 351 347 337 346 349 357 348 335 330 328 331 332 335 333 335 334 332 326 323 328 332 327 332 340 349 349 348 323 333 311 227 176 138 136 110 110 110 112 110 109
330 347 348 348 348 345 347 352 354 351 340 336 331 325 324 331 337 334 332 328 326 324 324 327 328 319 324 340 342 345 3 333 321 243 217 163 151 125 124 124 120 118 116
325 331 334 336 337 346 341 346 348 351 340 331 324 322 328 325 328 337 332 329 322 320 325 324 324 325 329 333 342 347 3 28 180 151 169 156 164 134 118 132 130 126 127
Wind_Speed_850mb
30 33 36 42 45 50 53 63 62 60 72 64 56 59 63 65 67 69 74 77 83 90 91 88 90 89 85 82 80 77 80 86 85 89 87 78 73 76 82 82 81 78 71
38 41 44 47 55 67 70 72 62 74 67 62 61 60 62 64 66 67 69 70 75 82 83 75 71 68 69 69 69 74 74 76 78 87 91 92 85 78 76 85 86 84 82
44 48 54 61 66 73 73 69 63 58 56 57 60 60 60 59 60 60 59 60 61 63 63 60 59 59 60 60 63 64 65 74 72 74 79 92 96 91 84 78 86 90 88
49 50 58 65 71 72 65 54 54 53 54 56 57 56 53 54 54 53 50 49 49 51 51 50 51 53 51 54 59 60 65 64 66 65 72 76 87 95 95 89 80 90 93
52 60 67 67 69 64 54 47 47 50 53 54 54 54 52 52 49 47 44 41 43 44 43 43 46 50 54 49 48 52 57 61 61 66 69 72 72 88 94 96 90 84 95
64 73 64 64 64 52 46 46 49 46 48 50 52 52 46 45 42 36 35 41 45 45 45 48 50 48 43 44 47 45 47 53 60 65 62 63 66 70 72 98 95 90 91
72 71 59 57 49 44 45 43 41 41 41 40 44 42 44 32 34 30 36 51 41 41 40 46 47 46 48 47 46 48 49 54 57 59 71 71 74 74 73 76 100 98 95
63 61 59 49 43 42 39 45 43 39 37 34 39 49 25 42 7 32 56 43 46 41 45 49 45 47 45 42 42 47 52 52 53 56 57 61 75 74 71 69 88 100 98
61 55 51 44 38 37 35 41 33 36 42 44 37 31 18 14 50 54 60 44 47 48 47 47 46 45 45 50 50 46 47 46 52 52 55 57 65 71 69 70 69 95 97
51 47 43 35 35 40 36 32 39 42 41 45 45 37 38 46 36 41 56 56 43 55 57 54 51 53 49 45 45 45 48 54 53 54 54 56 58 63 72 67 69 77 96
41 35 31 30 31 30 31 36 40 38 38 41 43 46 51 52 52 41 62 70 72 55 50 48 52 46 43 45 43 40 43 44 50 49 53 55 57 62 68 73 65 71 90
21 23 27 30 30 29 33 37 36 34 37 40 43 47 46 48 56 54 56 71 73 71 53 43 44 36 38 35 31 45 50 52 56 55 58 61 64 72 73 75 75 66 79
20 24 27 30 31 32 33 38 35 33 33 38 44 49 45 45 47 51 55 64 62 73 50 43 33 35 28 28 41 45 48 55 54 56 57 60 62 65 68 78 78 70 73
24 29 27 29 32 33 30 31 28 31 33 40 41 41 45 43 43 50 50 53 62 57 53 41 27 34 44 66 65 51 47 46 56 59 56 57 61 67 66 67 69 67 69
28 29 28 29 30 30 29 29 29 30 33 33 38 39 47 51 45 42 46 45 44 38 56 46 47 64 72 61 39 39 41 42 47 50 47 45 54 54 47 56 60 55 60
32 31 29 29 29 29 30 31 29 33 33 33 33 36 39 49 50 45 42 46 37 44 44 52 69 71 58 39 33 32 38 42 43 37 44 47 36 27 38 47 48 50 51
30 29 30 28 29 30 32 34 34 33 38 36 35 35 41 48 51 48 43 42 43 42 50 62 65 65 53 38 32 40 32 28 30 23 18 19 21 27 32 35 40 44 44
27 27 25 26 28 30 32 36 37 36 36 37 36 36 41 45 47 47 42 41 45 42 43 54 56 60 42 33 44 38 27 25 18 8 14 18 15 15 19 21 26 44 48
27 25 22 24 27 31 35 34 37 36 35 37 33 35 44 45 44 46 41 38 40 43 41 43 51 46 38 34 43 34 28 16 20 24 37 31 24 22 18 15 14 20 32
26 23 23 27 29 31 29 36 36 32 32 33 35 35 38 44 39 48 47 32 36 41 42 44 48 47 46 40 35 30 27 13 11 27 25 36 31 27 26 23 22 13 19
29 27 25 25 25 25 29 43 39 30 30 34 33 34 34 40 42 41 43 37 32 36 34 38 46 44 54 50 48 37 25 15 11 24 13 23 15 21 23 28 32 33 27
31 29 26 26 27 21 33 36 37 30 30 32 34 36 38 35 40 44 36 31 36 34 36 35 36 44 50 54 49 38 26 17 8 10 16 17 18 24 25 28 27 25 24
28 29 29 30 27 28 43 42 34 24 27 30 31 34 33 34 36 42 42 34 31 33 28 29 35 37 42 52 55 41 27 17 11 3 14 14 15 21 25 27 23 23 22
26 27 31 33 29 30 40 43 41 28 30 31 32 32 31 34 37 43 41 36 32 30 27 26 28 30 34 37 46 47 27 16 8 9 11 12 15 22 23 27 27 24 23
24 26 30 32 31 32 41 43 43 34 34 35 34 32 35 33 45 45 41 36 34 28 29 32 26 26 25 31 39 38 21 6 6 6 8 18 16 25 25 27 28 26 27
24 26 30 31 30 34 40 45 47 39 40 40 35 33 39 38 51 50 48 36 35 35 37 32 26 25 23 24 32 34 31 23 1 2 14 14 27 28 17 21 25 26 28
Wind_Direction_850mb
287 297 298 304 304 304 306 302 300 297 297 297 294 291 290 288 288 288 286 284 282 283 283 283 284 280 275 270 266 262 260 261 255 249 247 244 242 240 240 241 240 238 238
294 301 306 305 304 300 299 298 298 297 297 297 295 293 290 291 290 288 288 286 281 280 280 279 277 275 272 266 263 261 261 262 258 252 248 245 243 242 240 239 239 238 237
298 302 303 302 299 299 300 300 301 303 302 300 298 298 295 294 292 291 290 288 288 287 286 282 278 276 272 268 263 260 256 251 256 253 252 248 245 242 241 240 238 238 237
298 303 306 302 300 304 307 309 309 307 305 304 303 301 298 298 296 294 295 292 290 288 285 285 282 277 274 268 262 259 258 256 258 255 252 250 248 243 240 240 240 237 237
305 310 309 307 308 312 311 310 308 309 309 308 307 305 303 302 300 299 296 300 302 298 290 287 287 285 287 283 266 256 251 246 245 243 249 250 252 245 241 240 240 239 235
309 313 315 312 316 316 315 309 314 313 313 309 308 306 306 300 298 298 304 309 301 296 295 289 287 283 282 279 275 267 260 256 253 252 252 250 247 249 248 239 238 239 236
313 314 317 320 322 321 315 318 316 317 317 317 319 314 314 324 294 290 307 308 308 304 295 298 288 278 271 268 270 271 270 263 258 255 242 243 243 243 243 245 237 236 238
314 315 319 323 320 322 323 310 330 331 325 327 329 321 315 328 318 290 310 308 313 305 300 301 287 285 281 277 271 271 267 265 261 260 258 255 247 243 244 248 243 235 237
315 320 324 328 328 331 322 332 325 332 322 333 329 308 310 286 309 318 316 316 308 309 305 303 294 286 279 284 275 276 272 271 265 258 259 257 253 245 242 247 247 238 235
319 323 330 332 335 338 329 327 340 335 326 328 330 324 302 298 301 310 316 316 319 308 312 305 295 289 288 279 282 277 269 267 261 262 260 255 252 250 244 245 244 242 234
324 327 340 339 341 337 333 349 345 339 336 337 329 325 326 323 318 297 301 320 322 321 314 310 302 293 291 285 270 275 271 269 272 271 263 255 248 247 241 242 243 241 234
327 323 339 341 341 339 334 343 339 334 346 342 341 338 327 321 320 313 298 314 315 327 319 316 314 309 309 310 302 290 285 276 277 271 268 260 253 249 247 245 242 242 236
316 309 335 334 337 341 341 338 333 336 336 341 349 340 334 330 330 327 317 314 309 321 327 323 313 310 305 309 305 286 278 279 281 276 273 266 258 256 253 250 249 250 242
317 317 323 322 334 340 338 328 330 339 343 347 346 347 347 336 336 336 329 317 310 313 324 329 332 315 301 313 313 293 291 289 280 280 271 264 257 258 257 254 252 255 246
315 315 312 314 315 326 333 324 323 340 338 342 338 354 348 352 341 338 344 334 314 299 311 325 311 330 322 315 306 307 295 291 296 278 271 256 262 260 256 253 255 249 243
313 311 311 306 305 310 318 326 323 330 333 335 336 341 344 348 349 349 341 339 325 308 289 315 328 334 336 332 324 338 330 315 303 284 275 259 243 236 248 249 243 245 233
316 309 303 303 303 306 312 316 322 323 323 324 327 331 337 343 348 346 353 345 343 334 311 326 337 345 347 338 345 340 329 319 307 290 277 225 212 226 236 237 232 230 225
329 323 312 308 305 307 313 318 316 314 317 319 323 328 335 336 338 344 342 348 349 349 341 335 343 353 2 358 347 341 345 3 344 312 216 170 189 204 222 231 219 215 214
337 328 324 313 310 316 320 318 314 310 309 318 320 328 333 335 337 338 339 341 348 351 352 349 344 352 1 359 354 348 1 55 9 39 92 119 122 122 144 144 167 195 209
350 338 331 317 320 322 325 330 329 315 307 312 318 324 332 339 335 341 347 349 345 349 353 360 356 354 2 358 1 6 349 2 63 41 56 83 83 87 94 100 96 122 176
350 346 337 330 336 342 323 333 332 325 316 318 320 324 327 332 332 335 342 344 340 346 346 350 1 353 360 360 1 353 345 347 40 78 61 88 72 70 84 88 91 86 98
358 359 356 350 342 332 324 335 331 324 316 317 324 325 331 333 334 332 334 340 344 341 341 344 352 358 357 357 355 351 347 334 309 82 84 65 76 96 88 101 93 90 96
354 357 357 351 343 329 329 344 339 338 323 322 328 330 335 333 340 341 341 336 327 328 330 344 334 347 352 355 351 348 345 329 315 145 96 90 82 86 90 103 104 108 108
342 352 355 351 347 337 346 349 357 348 335 330 328 331 332 335 333 335 334 332 326 323 328 332 327 332 340 349 349 348 323 333 311 227 176 138 136 110 110 110 112 110 109
330 347 348 348 348 345 347 352 354 351 340 336 331 325 324 331 337 334 332 328 326 324 324 327 328 319 324 340 342 345 3 333 321 243 217 163 151 125 124 124 120 118 116
325 331 334 336 337 346 341 346 348 351 340 331 324 322 328 325 328 337 332 329 322 320 325 324 324 325 329 333 342 347 3 28 180 151 169 156 164 134 118 132 130 126 127